Hourly Weather Roundup
Issued by NWS Central Illinois

Home | Current Version | Previous Version | Text Only | Print | Product List | Glossary On
Versions: 1 2 3 4 5 6 7 8 9 10 11 12 13 14 15 16 17 18 19 20 21 22 23 24 25 26 27 28 29 30 31 32 33 34 35 36 37 38 39 40 41 42 43 44 45 46 47 48 49 50
000
NZUS43 KILX 050810
HWRILX

AREA WEATHER ROUNDUP
NATIONAL WEATHER SERVICE, LINCOLN IL
200 AM CST MON DEC 05 2016


CITY           SKY/WX    TMP DP  RH WIND       PRES   REMARKS
BLOOMINGTON    CLOUDY    32  31  96 W12       30.02R WCI  23
CHAMPAIGN      CLOUDY    33  31  92 W13       30.04R WCI  24
DANVILLE       CLOUDY    32  31  97 W7        30.02R WCI  26
DECATUR        CLOUDY    33  31  92 W8        30.05R WCI  26
EFFINGHAM      CLOUDY    35  34  95 W8        30.08S WCI  29
FLORA          CLOUDY    37  34  87 NW3       30.09R
GALESBURG      CLOUDY    33  32  97 SW5       30.00R WCI  28
JACKSONVILLE   CLOUDY    34  33  96 CALM      30.02S FOG
LACON          CLOUDY    33  32  96 W6        30.02R WCI  27
LAWRENCEVILLE  CLOUDY    37  32  82 W5        30.09R WCI  33
LITCHFIELD     CLOUDY    35  34  95 CALM      30.04S
$$


CITY           SKY/WX    TMP DP  RH WIND       PRES   REMARKS
LINCOLN        CLOUDY    34  33  96 CALM      30.04R
MACOMB         CLOUDY    34  33  97 SW6       30.03R WCI  29
MATTOON        CLOUDY    35  31  85 W5        30.05R WCI  31
MT CARMEL AP   CLOUDY    36  32  85 W7        30.09R WCI  31
OLNEY-NOBLE AP CLOUDY    36  36 100 CALM      30.09R
PARIS          CLOUDY    34  32  92 W9        30.06R WCI  27
PEORIA         CLOUDY    33  32  96 W7        30.03R WCI  27
PONTIAC        CLOUDY    34  34 100 W13       30.03R WCI  25
RANTOUL        CLOUDY    34  33  95 W9        30.04R WCI  27
SPRINGFIELD    CLOUDY    34  32  92 CALM      30.03F
TAYLORVILLE    CLOUDY    33  32  95 W3        30.05S
$$

...REGIONAL REPORTS...


CITY           SKY/WX    TMP DP  RH WIND       PRES   REMARKS
CHICAGO O`HARE CLOUDY    33  30  88 W12       29.95S WCI  24
KANKAKEE       CLOUDY    33  32  97 CALM      30.02R
MOLINE         CLOUDY    35  31  85 SW9       29.98R WCI  28
MOUNT STERLING FOG       32  32 100 CALM      29.99F VSB 1/4
MOUNT VERNON   NOT AVBL
PITTSFIELD     FOG       31  30  99 S3        30.02S VSB 1
QUINCY         FOG       33  33 100 W7        30.00S VSB 3/4 WCI  27
ROCKFORD       CLOUDY    33  30  88 W10       29.97R WCI  25
$$


CITY           SKY/WX    TMP DP  RH WIND       PRES   REMARKS
BURLINGTON     CLOUDY    33  33 100 S3        29.99R
CEDAR RAPIDS   CLOUDY    33  33 100 S8        29.93R FOG     WCI  26
DES MOINES     CLEAR     31  29  92 S8        29.91R WCI  23
KIRKSVILLE     FOG       29  29 100 SW6       30.00R VSB 1/4 WCI  23
OTTUMWA        FOG       34  32  92 SW9       29.94S VSB 1   WCI  27
ST LOUIS       PTCLDY    34  29  82 CALM      30.05R
$$


CITY           SKY/WX    TMP DP  RH WIND       PRES   REMARKS
TERRE HAUTE    CLOUDY    36  31  82 NW9       30.07R WCI  29
EVANSVILLE     CLOUDY    40  33  76 W6        30.09R
INDIANAPOLIS   CLOUDY    35  31  85 W10       30.03R WCI  27
LAFAYETTE      CLOUDY    33  32  96 W10       30.03R WCI  25
MADISON        CLOUDY    33  30  88 W8        29.89R WCI  26
MILWAUKEE      CLOUDY    34  30  85 W9        29.91R WCI  27
$$






USA.gov is the U.S. government's official web portal to all federal, state and local government web resources and services.